Location: Newark
(48.7667°N, 7.9833°E)
Time: 03:31:42
(UTC+00:00)

YUBILEINY - Visible Passes

Search period start: 22 September 2019 00:00
Search period end: 02 October 2019 00:00
Orbit: 1479 x 1508 km, 82.5° (Epoch: 21 September)

Date Brightness Start Highest point End Pass type
(mag) Time Alt. Az. Time Alt. Az. Time Alt. Az.
22 Sep ? 04:25:18 10° SSE 04:33:19 42° E 04:41:23 10° NNE visible
22 Sep ? 18:24:38 10° NNW 18:30:38 21° WNW 18:36:38 10° WSW visible
23 Sep ? 03:37:50 10° SE 03:44:25 25° ENE 03:51:02 10° NNE visible
24 Sep ? 02:52:16 10° E 02:55:53 13° ENE 02:59:30 10° NE visible
24 Sep ? 04:42:07 10° SSE 04:50:41 60° E 04:59:19 10° NNE visible
24 Sep ? 18:43:51 10° NW 18:47:32 13° WNW 18:51:13 10° W visible
25 Sep ? 03:53:52 10° SE 04:01:34 36° E 04:09:18 10° NNE visible
25 Sep ? 17:52:21 10° NNW 17:58:59 25° WNW 18:05:37 10° SW visible
26 Sep ? 03:06:49 10° ESE 03:12:46 21° ENE 03:18:45 10° NNE visible
27 Sep ? 02:22:46 10° ENE 02:24:21 11° ENE 02:25:55 10° NE visible
27 Sep ? 04:10:29 10° SSE 04:18:52 52° E 04:27:19 10° NNE visible
27 Sep ? 18:11:07 10° NW 18:15:58 16° WNW 18:20:48 10° WSW visible
28 Sep ? 03:22:32 10° SE 03:29:50 31° E 03:37:11 10° NNE visible
29 Sep ? 02:35:59 10° ESE 02:41:09 17° ENE 02:46:21 10° NE visible
29 Sep ? 04:27:35 10° S 04:36:20 74° E 04:45:10 10° NNE visible
30 Sep ? 03:38:56 10° SSE 03:47:05 45° E 03:55:17 10° NNE visible
30 Sep ? 17:38:38 10° NNW 17:44:21 19° WNW 17:50:03 10° WSW visible
01 Oct ? 02:51:20 10° SE 02:58:10 26° ENE 03:05:01 10° NNE visible
01 Oct ? 04:45:09 10° SSW 04:53:58 81° W 05:02:54 10° N visible
